EW9366 Weather Reports


Display with metric or nautical units.
time (UTC)temp
F
wind
direction
speed
MPH
gust
MPH
rain 1hr
in
rain 24hr
in
rain mn
in
humidity
%
barometer
mb
20260506044641 47 81 4.0 8.0 0.00 1.06 1.06 91 1011.9
20260506044626 47 133 4.0 9.0 0.00 1.06 1.06 91 1011.6
20260506043634 47 115 5.0 10.0 0.00 1.06 1.06 91 1011.6
20260506043107 47 26 5.0 10.0 0.00 1.06 1.06 91 1011.4
20260506042605 47 66 5.0 10.0 0.00 1.06 1.06 91 1011.4
20260506042035 47 331 5.0 15.0 0.00 1.06 1.06 92 1011.6
20260506041534 47 269 5.0 15.0 0.00 1.06 1.06 92 1011.8
20260506041036 47 93 4.0 11.0 0.00 1.06 1.06 92 1011.4
20260506040957 47 23 4.0 11.0 0.00 1.06 1.06 92 1011.2
20260506040005 47 56 4.0 13.0 0.00 1.06 1.06 93 1011.1
20260506035437 47 43 5.0 13.0 0.00 1.06 1.06 93 1011.2
20260506034934 47 86 5.0 12.0 0.00 1.06 1.06 93 1011.3
20260506034407 47 53 4.0 8.0 0.00 1.06 1.06 93 1010.8
20260506033903 47 53 3.0 10.0 0.00 1.06 1.06 93 1010.7
20260506033400 47 238 3.0 10.0 0.00 1.06 1.06 93 1010.7
20260506032853 47 26 3.0 7.0 0.00 1.06 1.06 93 1010.7
20260506032351 47 48 3.0 7.0 0.00 1.06 1.06 93 1010.7
20260506031824 47 62 3.0 7.0 0.00 1.06 1.06 93 1010.4
20260506031747 47 58 4.0 9.0 0.00 1.06 1.06 93 1010.3
20260506030731 47 29 4.0 9.0 0.00 1.06 1.06 93 1010.0
20260506030228 47 63 4.0 9.0 0.00 1.06 1.06 93 1010.1
20260506025724 47 96 3.0 8.0 0.00 1.06 1.06 93 1010.0
20260506025221 47 105 2.0 8.0 0.00 1.06 1.06 93 1009.9
20260506024652 47 62 3.0 7.0 0.00 1.06 1.06 93 1010.0
20260506024150 47 134 4.0 9.0 0.00 1.06 1.06 93 1009.7
20260506023622 47 21 4.0 10.0 0.00 1.06 1.06 93 1009.7
20260506023118 47 86 3.0 10.0 0.00 1.06 1.06 93 1009.5
20260506022616 47 42 3.0 9.0 0.00 1.06 1.06 92 1009.3
20260506022113 47 31 3.0 9.0 0.00 1.06 1.06 92 1009.3
20260506021552 47 63 3.0 10.0 0.00 1.06 1.06 92 1009.3
20260506021053 47 23 3.0 10.0 0.00 1.06 1.06 92 1009.1
20260506020550 47 84 4.0 10.0 0.00 1.06 1.06 92 1009.2
20260506020053 47 7 4.0 10.0 0.00 1.06 1.06 92 1009.2
20260506020029 47 139 4.0 9.0 0.00 1.06 1.06 92 1009.3
20260506015535 47 84 5.0 13.0 0.00 1.06 1.06 92 1009.2
20260506014517 47 35 4.0 13.0 0.00 1.06 1.06 92 1009.4
20260506014457 47 58 3.0 11.0 0.00 1.06 1.06 92 1009.5
20260506013513 47 36 2.0 11.0 0.00 1.06 1.06 92 1009.6
20260506013011 48 65 2.0 6.0 0.00 1.06 1.06 92 1009.8
20260506012514 48 92 3.0 9.0 0.00 1.06 1.06 92 1009.5
20260506012010 47 57 4.0 9.0 0.00 1.06 1.06 92 1009.2
20260506011955 47 47 3.0 7.0 0.00 1.06 1.06 92 1008.6
20260506010946 47 40 3.0 9.0 0.00 1.06 1.06 92 1008.7
20260506010924 47 72 4.0 11.0 0.00 1.06 1.06 92 1008.5
20260506005916 48 257 3.0 11.0 0.00 1.06 1.06 92 1008.6
20260506005419 48 138 3.0 8.0 0.00 1.06 1.06 92 1008.7
20260506004917 48 57 4.0 9.0 0.00 1.06 1.06 91 1008.7
20260506004419 48 271 3.0 9.0 0.00 1.06 1.06 91 1008.7
20260506003853 49 80 3.0 10.0 0.00 1.06 1.06 91 1008.6
20260506003348 49 143 3.0 10.0 0.00 1.06 1.06 91 1008.7
20260506002845 49 113 4.0 11.0 0.00 1.06 1.06 91 1008.5
20260506002341 49 84 4.0 11.0 0.00 1.06 1.06 91 1008.6
20260506001839 49 76 4.0 12.0 0.00 1.06 1.06 91 1008.4
20260506001313 49 37 5.0 12.0 0.00 1.06 1.06 90 1008.3
20260506000809 49 26 5.0 12.0 0.00 1.06 1.06 90 1008.3
20260506000753 49 95 5.0 12.0 0.00 1.06 1.06 90 1008.3
20260506000243 49 21 5.0 12.0 0.00 1.06 1.06 91 1008.4
20260505235305 49 94 4.0 12.0 0.00 1.06 1.06 91 1008.2
20260505234729 49 56 4.0 9.0 0.00 1.06 1.06 90 1008.2
20260505234201 49 20 3.0 8.0 0.00 1.06 1.06 90 1008.2
20260505233639 50 41 3.0 11.0 0.00 1.06 1.06 90 1007.7
20260505233623 49 58 5.0 11.0 0.00 1.06 1.06 90 1007.9
20260505232633 49 296 6.0 11.0 0.00 1.06 1.06 90 1007.6
20260505232135 50 100 5.0 11.0 0.00 1.06 1.06 90 1007.5
20260505231632 50 94 3.0 9.0 0.00 1.06 1.06 90 1007.7
20260505231131 50 68 3.0 8.0 0.00 1.06 1.06 91 1007.7
20260505230628 50 82 3.0 8.0 0.00 1.06 1.06 91 1007.6
20260505230128 50 101 3.0 8.0 0.00 1.06 1.06 91 1007.4
20260505225626 50 145 3.0 8.0 0.00 1.06 1.06 91 1007.2
20260505225124 50 151 4.0 11.0 0.00 1.06 1.06 91 1007.2
20260505224601 50 50 6.0 16.0 0.00 1.06 1.06 90 1007.0
20260505224059 51 80 5.0 16.0 0.00 1.06 1.06 90 1006.8
20260505223601 51 106 4.0 12.0 0.00 1.06 1.06 90 1007.0
20260505223101 51 85 3.0 14.0 0.00 1.06 1.06 91 1007.1
20260505222534 51 186 5.0 14.0 0.00 1.06 1.06 91 1007.1
20260505222030 52 67 6.0 14.0 0.00 1.06 1.06 90 1006.9
20260505221525 52 68 4.0 14.0 0.00 1.06 1.06 90 1006.6
20260505221021 52 169 4.0 10.0 0.00 1.06 1.06 90 1006.6
20260505220457 52 53 4.0 13.0 0.00 1.06 1.06 90 1006.6
20260505215931 53 48 6.0 13.0 0.00 1.06 1.06 90 1006.8
20260505215428 53 70 7.0 14.0 0.00 1.06 1.06 89 1006.4
20260505214923 53 81 5.0 14.0 0.00 1.06 1.06 89 1006.3
20260505214354 53 188 4.0 12.0 0.00 1.06 1.06 89 1006.6
20260505213851 53 192 4.0 12.0 0.00 1.06 1.06 89 1006.8
20260505213324 53 62 4.0 12.0 0.00 1.06 1.06 89 1006.7
20260505212821 53 89 4.0 14.0 0.00 1.06 1.06 90 1006.7
20260505212258 53 26 6.0 14.0 0.00 1.06 1.06 90 1006.6
20260505212252 54 54 6.0 14.0 0.00 1.06 1.06 89 1006.4
20260505211226 54 347 4.0 11.0 0.00 1.06 1.06 90 1006.3
20260505210659 54 357 5.0 12.0 0.00 1.06 1.06 90 1006.4
20260505210157 54 65 5.0 12.0 0.00 1.06 1.06 90 1006.3
20260505210146 54 72 4.0 12.0 0.00 1.06 1.06 90 1006.3
20260505205144 55 131 4.0 12.0 0.00 1.06 1.06 90 1006.3
20260505204638 55 52 4.0 10.0 0.01 1.06 1.06 91 1006.4
20260505204135 55 49 4.0 11.0 0.01 1.06 1.06 91 1006.3
20260505203610 55 49 3.0 11.0 0.01 1.06 1.06 91 1006.1
20260505203107 55 111 2.0 8.0 0.01 1.06 1.06 91 1006.4
20260505202604 55 1 2.0 8.0 0.01 1.06 1.06 91 1006.4
20260505202101 55 86 3.0 8.0 0.01 1.06 1.06 92 1006.4
20260505201537 55 295 4.0 10.0 0.01 1.06 1.06 91 1006.4
20260505201010 55 159 5.0 11.0 0.01 1.06 1.06 91 1006.3
20260505200445 55 98 5.0 11.0 0.01 1.06 1.06 91 1006.1
20260505195939 56 103 4.0 11.0 0.01 1.06 1.06 92 1005.9
20260505195439 56 56 3.0 11.0 0.01 1.06 1.06 91 1006.3
20260505194916 56 70 3.0 8.0 0.00 1.05 1.05 91 1006.6
20260505194413 56 115 3.0 8.0 0.00 1.05 1.05 91 1006.5
20260505194357 56 64 2.0 13.0 0.00 1.05 1.05 91 1006.7
20260505193411 56 185 3.0 13.0 0.00 1.05 1.05 91 1006.5
20260505193339 56 34 6.0 13.0 0.00 1.05 1.05 91 1005.8
20260505192332 56 117 7.0 13.0 0.00 1.05 1.05 92 1005.5
20260505191834 56 21 5.0 12.0 0.00 1.05 1.05 92 1005.1
20260505191322 56 53 4.0 12.0 0.00 1.05 1.05 92 1005.7
20260505191317 57 114 4.0 11.0 0.00 1.05 1.05 92 1005.8
20260505190252 57 49 4.0 13.0 0.00 1.05 1.05 92 1005.7
20260505185729 57 91 4.0 13.0 0.01 1.05 1.05 92 1005.7
20260505185207 57 100 4.0 9.0 0.01 1.05 1.05 92 1006.0
20260505184705 57 34 5.0 13.0 0.01 1.05 1.05 91 1005.9
20260505184142 57 135 6.0 13.0 0.01 1.05 1.05 92 1005.7
20260505183641 57 23 6.0 14.0 0.01 1.05 1.05 92 1005.5
20260505183139 58 24 6.0 14.0 0.01 1.05 1.05 91 1005.4
20260505183126 58 101 4.0 11.0 0.01 1.05 1.05 91 1005.5
20260505182119 59 115 5.0 11.0 0.01 1.05 1.05 91 1005.4
20260505181616 59 108 5.0 11.0 0.01 1.05 1.05 91 1005.4
20260505181113 60 45 4.0 11.0 0.01 1.05 1.05 90 1005.4
20260505180614 61 116 3.0 9.0 0.01 1.05 1.05 89 1005.5
20260505180053 63 165 3.0 8.0 0.00 1.04 1.04 90 1005.0
20260505180039 63 165 3.0 8.0 0.00 1.04 1.04 91 1005.0
20260505175031 64 53 3.0 8.0 0.00 1.04 1.04 91 1004.9
20260505175014 64 6 2.0 7.0 0.00 1.04 1.04 91 1005.0
20260505174012 64 47 1.0 6.0 0.00 1.04 1.04 91 1005.1
20260505173511 64 119 1.0 6.0 0.00 1.04 1.04 91 1005.2
20260505172944 64 84 1.0 5.0 0.00 1.04 1.04 91 1005.1
20260505172425 64 20 1.0 5.0 0.00 1.04 1.04 91 1005.1
20260505171923 64 29 1.0 3.0 0.00 1.04 1.04 91 1005.1
20260505171356 64 91 1.0 8.0 0.00 1.04 1.04 91 1005.0
20260505170855 64 51 2.0 8.0 0.00 1.04 1.04 91 1004.9
20260505170357 64 75 2.0 6.0 0.00 1.04 1.04 91 1004.8
20260505165832 65 86 2.0 6.0 0.00 1.04 1.04 90 1004.9
20260505165322 65 66 3.0 7.0 0.00 1.04 1.04 90 1004.9
20260505164823 65 38 3.0 7.0 0.00 1.04 1.04 90 1005.0
20260505164741 65 105 2.0 7.0 0.00 1.04 1.04 89 1005.0
20260505163727 65 65 1.0 4.0 0.00 1.04 1.04 90 1005.1
20260505163206 65 20 1.0 3.0 0.00 1.04 1.04 90 1005.1
20260505162707 65 39 1.0 4.0 0.00 1.04 1.04 89 1005.1
20260505162200 66 27 2.0 4.0 0.00 1.04 1.04 89 1005.0
20260505161700 66 39 2.0 5.0 0.00 1.04 1.04 90 1005.0
20260505161148 65 105 2.0 8.0 0.00 1.04 1.04 91 1004.9
20260505160645 65 103 3.0 8.0 0.00 1.04 1.04 90 1004.8
20260505160149 65 68 3.0 6.0 0.00 1.04 1.04 91 1004.8
20260505153033 65 102 3.0 7.0 0.00 1.04 1.04 93 1004.6
20260505152948 64 54 3.0 6.0 0.00 1.04 1.04 94 1004.5
20260505152015 64 54 3.0 6.0 0.00 1.04 1.04 94 1004.5
20260505151516 64 24 2.0 6.0 0.00 1.04 1.04 94 1004.6
20260505150955 63 58 3.0 8.0 0.00 1.04 1.04 95 1004.6
20260505150429 63 77 3.0 8.0 0.00 1.04 1.04 94 1004.6
20260505140201 62 94 1.0 3.0 0.00 1.04 1.04 97 1005.2
20260505124829 61 69 0.0 1.0 0.00 1.04 1.04 97 1004.8
20260505124311 60 84 0.0 4.0 0.00 1.04 1.04 97 1004.8
20260505123745 60 303 0.0 4.0 0.00 1.04 1.04 97 1004.7
20260505123220 60 1 0.0 1.0 0.00 1.04 1.04 97 1004.6
20260505122705 60 279 0.0 4.0 0.00 1.04 1.04 97 1004.6
20260505122141 60 233 0.0 4.0 0.00 1.04 1.04 97 1004.6
20260505121639 60 204 0.0 1.0 0.00 1.04 1.04 97 1004.6
20260505121139 60 112 0.0 1.0 0.00 1.04 1.04 97 1004.6
20260505120637 60 220 0.0 1.0 0.00 1.04 1.04 97 1004.6
20260505120116 60 330 0.0 1.0 0.00 1.04 1.04 97 1004.5
20260505115558 60 108 0.0 1.0 0.00 1.04 1.04 97 1004.4
20260505115057 60 108 0.0 2.0 0.00 1.04 1.04 97 1004.5
20260505114558 60 108 0.0 2.0 0.00 1.04 1.04 97 1004.4
20260505114055 60 58 0.0 4.0 0.00 1.04 1.04 96 1004.4
20260505113535 60 314 0.0 1.0 0.00 1.04 1.04 96 1004.3
20260505113014 60 314 0.0 1.0 0.00 1.04 1.04 96 1004.4
20260505112959 60 193 0.0 1.0 0.00 1.04 1.04 96 1004.3
20260505112014 60 18 0.0 3.0 0.00 1.04 1.04 96 1004.4
20260505111512 60 18 0.0 2.0 0.00 1.04 1.04 96 1004.3
20260505110944 60 51 1.0 4.0 0.00 1.04 1.04 96 1004.3
20260505110414 60 41 1.0 4.0 0.00 1.04 1.04 96 1004.3
20260505101656 60 96 2.0 5.0 0.02 1.04 1.04 96 1005.1
20260505101136 60 113 2.0 5.0 0.02 1.04 1.04 96 1005.0
20260505101120 59 98 2.0 5.0 0.02 1.04 1.04 96 1005.1
20260505100137 59 27 1.0 5.0 0.02 1.04 1.04 96 1005.2
20260505095637 59 26 1.0 4.0 0.02 1.04 1.04 96 1005.2
20260505095133 59 26 1.0 4.0 0.03 1.04 1.04 96 1005.2
20260505094634 59 37 2.0 5.0 0.04 1.04 1.04 96 1005.2
20260505094559 59 17 2.0 5.0 0.05 1.04 1.04 96 1005.2
20260505093543 59 115 2.0 5.0 0.06 1.04 1.04 96 1005.3
20260505093014 59 61 1.0 5.0 0.08 1.04 1.04 96 1005.5
20260505092952 59 100 1.0 4.0 0.08 1.03 1.03 95 1005.5
20260505091946 59 16 1.0 3.0 0.14 1.03 1.03 95 1005.4
20260505091421 59 27 2.0 4.0 0.19 1.02 1.02 95 1005.4
20260505090856 59 82 1.0 4.0 0.21 1.02 1.02 95 1005.4
20260505090356 59 105 1.0 5.0 0.24 1.02 1.02 95 1005.6
20260505085830 59 59 1.0 5.0 0.30 1.02 1.02 95 1005.4
20260505085754 59 73 2.0 4.0 0.33 1.01 1.01 95 1005.4
20260505084803 60 88 1.0 4.0 0.36 1.00 1.00 95 1005.4
20260505084717 60 229 1.0 3.0 0.38 0.99 0.99 95 1005.8
20260505083723 60 245 1.0 3.0 0.41 0.98 0.98 95 1005.7
20260505083711 60 82 0.0 1.0 0.44 0.97 0.98 95 1005.1
20260505082718 60 86 0.0 3.0 0.53 0.96 0.96 94 1005.2
20260505082636 60 93 1.0 5.0 0.51 0.93 0.93 94 1004.8
20260505081635 60 79 1.0 5.0 0.45 0.85 0.86 94 1005.0
20260505081619 60 219 1.0 6.0 0.44 0.81 0.82 94 1005.2
20260505080634 60 15 2.0 6.0 0.48 0.79 0.79 94 1005.0
20260505080130 60 59 1.0 7.0 0.44 0.74 0.74 94 1004.9
20260505075604 60 101 2.0 7.0 0.46 0.70 0.70 93 1005.5
20260505075040 60 32 3.0 11.0 0.41 0.65 0.66 92 1004.9
20260505074541 60 49 4.0 11.0 0.40 0.63 0.64 92 1005.7
20260505074037 61 98 6.0 12.0 0.39 0.58 0.58 91 1005.9
20260505073512 62 108 7.0 22.0 0.51 0.56 0.56 91 1005.0
20260505072946 62 105 7.0 22.0 0.45 0.49 0.50 92 1004.9
20260505072442 62 233 5.0 20.0 0.39 0.43 0.43 92 1005.9
20260505071942 62 131 2.0 6.0 0.39 0.42 0.42 91 1003.4
20260505071438 62 25 2.0 6.0 0.38 0.40 0.40 91 1003.9
20260505070933 62 257 2.0 6.0 0.30 0.32 0.32 90 1004.6
20260505070429 62 57 2.0 6.0 0.30 0.31 0.31 90 1003.6
20260505065925 62 82 1.0 4.0 0.23 0.24 0.25 89 1004.6
20260505065423 62 17 1.0 4.0 0.24 0.24 0.24 89 1004.5
20260505064857 62 49 0.0 2.0 0.23 0.23 0.23 89 1004.6
20260505064332 62 119 1.0 3.0 0.23 0.23 0.23 88 1004.5
20260505063831 62 79 1.0 5.0 0.11 0.11 0.11 88 1004.7
20260505063328 63 246 1.0 5.0 0.05 0.05 0.05 87 1006.0
20260505062823 63 276 0.0 2.0 0.04 0.04 0.04 86 1005.9
20260505062255 63 162 0.0 2.0 0.04 0.04 0.04 85 1004.8
20260505061730 63 101 0.0 2.0 0.03 0.03 0.03 84 1004.6
20260505061229 64 108 0.0 3.0 0.02 0.02 0.02 84 1005.0
20260505060726 64 37 0.0 3.0 0.02 0.02 0.02 82 1005.4
20260505060213 65 113 0.0 1.0 0.01 0.01 0.01 81 1005.6
20260505060127 65 163 0.0 0.0 0.00 0.00 0.01 80 1005.9
20260505055120 65 163 0.0 0.0 0.00 0.00 0.00 78 1006.1
20260505055108 65 163 0.0 0.0 0.00 0.00 0.00 78 1006.1
20260505054112 65 163 0.0 0.0 0.00 0.00 0.00 78 1006.0
20260505053609 65 157 0.0 0.0 0.00 0.00 0.00 77 1005.8
20260505053043 65 160 0.0 0.0 0.00 0.00 0.00 77 1005.9
20260505052516 65 160 0.0 3.0 0.00 0.00 0.00 77 1005.9
20260505052012 65 159 0.0 3.0 0.00 0.00 0.00 77 1005.7
20260505051930 65 135 0.0 2.0 0.00 0.00 0.00 77 1005.4
20260505050943 65 139 0.0 2.0 0.00 0.00 0.00 77 1005.4
20260505050440 65 138 0.0 1.0 0.00 0.00 0.00 78 1005.4